Time,TemperatureF,DewpointF,PressureIn,WindDirection,WindDirectionDegrees,WindSpeedMPH,WindSpeedGustMPH,Humidity,HourlyPrecipIn,Conditions,Clouds,dailyrainin,SoftwareType,DateUTC
2013-01-11 00:02:00,43.0,-99.9,-100.00,NE,45,0.0,-999.0,-999,-99.99,,,0.00,,2013-01-11 07:02:00,
2013-01-11 00:12:00,44.0,-99.9,-100.00,NE,45,0.0,-999.0,-999,-99.99,,,0.00,,2013-01-11 07:12:00,
2013-01-11 00:22:00,44.0,-99.9,-100.00,NE,45,0.0,-999.0,-999,-99.99,,,0.00,,2013-01-11 07:22:00,
2013-01-11 00:32:00,44.0,-99.9,-100.00,NE,45,0.0,-999.0,-999,-99.99,,,0.00,,2013-01-11 07:32:00,
2013-01-11 00:43:00,45.0,-99.9,-100.00,NE,45,3.0,-999.0,-999,-99.99,,,0.00,,2013-01-11 07:43:00,
2013-01-11 00:53:00,45.0,-99.9,-100.00,NE,45,3.0,-999.0,-999,-99.99,,,0.00,,2013-01-11 07:53:00,
2013-01-11 01:02:00,44.0,-99.9,-100.00,NE,45,2.0,-999.0,-999,-99.99,,,0.00,,2013-01-11 08:02:00,
2013-01-11 01:12:00,44.0,-99.9,-100.00,NE,45,0.0,-999.0,-999,-99.99,,,0.00,,2013-01-11 08:12:00,
2013-01-11 01:22:00,44.0,-99.9,-100.00,NE,45,0.0,-999.0,-999,-99.99,,,0.00,,2013-01-11 08:22:00,
2013-01-11 01:32:00,44.0,-99.9,-100.00,NE,45,0.0,-999.0,-999,-99.99,,,0.00,,2013-01-11 08:32:00,
2013-01-11 01:43:00,44.0,-99.9,-100.00,NE,45,0.0,-999.0,-999,-99.99,,,0.00,,2013-01-11 08:43:00,
2013-01-11 01:53:00,44.0,-99.9,-100.00,NE,45,0.0,-999.0,-999,-99.99,,,0.00,,2013-01-11 08:53:00,
2013-01-11 02:03:00,44.0,-99.9,-100.00,NE,45,0.0,-999.0,-999,-99.99,,,0.00,,2013-01-11 09:03:00,
2013-01-11 02:12:00,44.0,-99.9,-100.00,NE,45,0.0,-999.0,-999,-99.99,,,0.00,,2013-01-11 09:12:00,
2013-01-11 02:23:00,43.0,-99.9,-100.00,NE,45,0.0,-999.0,-999,-99.99,,,0.00,,2013-01-11 09:23:00,
2013-01-11 02:32:00,43.0,-99.9,-100.00,NE,45,0.0,-999.0,-999,-99.99,,,0.00,,2013-01-11 09:32:00,
2013-01-11 02:43:00,43.0,-99.9,-100.00,NE,45,0.0,-999.0,-999,-99.99,,,0.00,,2013-01-11 09:43:00,
2013-01-11 02:53:00,43.0,-99.9,-100.00,NE,45,2.0,-999.0,-999,-99.99,,,0.00,,2013-01-11 09:53:00,
2013-01-11 03:02:00,43.0,-99.9,-100.00,NE,45,4.0,-999.0,-999,-99.99,,,0.00,,2013-01-11 10:02:00,
2013-01-11 03:12:00,43.0,-99.9,-100.00,NE,45,4.0,-999.0,-999,-99.99,,,0.00,,2013-01-11 10:12:00,
2013-01-11 03:22:00,43.0,-99.9,-100.00,NE,45,5.0,-999.0,-999,-99.99,,,0.00,,2013-01-11 10:22:00,
2013-01-11 03:32:00,43.0,-99.9,-100.00,NE,45,0.0,-999.0,-999,-99.99,,,0.00,,2013-01-11 10:32:00,
2013-01-11 03:43:00,43.0,-99.9,-100.00,NE,45,0.0,-999.0,-999,-99.99,,,0.00,,2013-01-11 10:43:00,
2013-01-11 03:53:00,43.0,-99.9,-100.00,NE,45,3.0,-999.0,-999,-99.99,,,0.00,,2013-01-11 10:53:00,
2013-01-11 04:03:00,43.0,-99.9,-100.00,NE,45,6.0,-999.0,-999,-99.99,,,0.00,,2013-01-11 11:03:00,
2013-01-11 04:12:00,43.0,-99.9,-100.00,NE,45,6.0,-999.0,-999,-99.99,,,0.00,,2013-01-11 11:12:00,
2013-01-11 04:23:00,43.0,-99.9,-100.00,NE,45,4.0,-999.0,-999,-99.99,,,0.00,,2013-01-11 11:23:00,
2013-01-11 04:33:00,43.0,-99.9,-100.00,NE,45,7.0,-999.0,-999,-99.99,,,0.00,,2013-01-11 11:33:00,
2013-01-11 04:43:00,43.0,-99.9,-100.00,NE,45,7.0,-999.0,-999,-99.99,,,0.00,,2013-01-11 11:43:00,
2013-01-11 04:53:00,43.0,-99.9,-100.00,NE,45,0.0,-999.0,-999,-99.99,,,0.00,,2013-01-11 11:53:00,
2013-01-11 05:03:00,43.0,-99.9,-100.00,NE,45,0.0,-999.0,-999,-99.99,,,0.00,,2013-01-11 12:03:00,
2013-01-11 05:13:00,43.0,-99.9,-100.00,NE,45,0.0,-999.0,-999,-99.99,,,0.00,,2013-01-11 12:13:00,
2013-01-11 05:23:00,43.0,-99.9,-100.00,NE,45,0.0,-999.0,-999,-99.99,,,0.00,,2013-01-11 12:23:00,
2013-01-11 05:33:00,43.0,-99.9,-100.00,NE,45,0.0,-999.0,-999,-99.99,,,0.00,,2013-01-11 12:33:00,
2013-01-11 05:43:00,43.0,-99.9,-100.00,NE,45,0.0,-999.0,-999,-99.99,,,0.00,,2013-01-11 12:43:00,
2013-01-11 05:53:00,44.0,-99.9,-100.00,NE,45,0.0,-999.0,-999,-99.99,,,0.00,,2013-01-11 12:53:00,
2013-01-11 06:03:00,47.0,-99.9,-100.00,NE,45,8.0,-999.0,-999,-99.99,,,0.00,,2013-01-11 13:03:00,
2013-01-11 06:13:00,47.0,-99.9,-100.00,NE,45,8.0,-999.0,-999,-99.99,,,0.00,,2013-01-11 13:13:00,
2013-01-11 06:23:00,52.0,-99.9,-100.00,NE,45,3.0,-999.0,-999,-99.99,,,0.00,,2013-01-11 13:23:00,
2013-01-11 06:33:00,52.0,-99.9,-100.00,NE,45,9.0,-999.0,-999,-99.99,,,0.00,,2013-01-11 13:33:00,
2013-01-11 06:43:00,52.0,-99.9,-100.00,NE,45,9.0,-999.0,-999,-99.99,,,0.00,,2013-01-11 13:43:00,
2013-01-11 06:53:00,53.0,-99.9,-100.00,NE,45,0.0,-999.0,-999,-99.99,,,0.00,,2013-01-11 13:53:00,
2013-01-11 07:03:00,53.0,-99.9,-100.00,NE,45,7.0,-999.0,-999,-99.99,,,0.00,,2013-01-11 14:03:00,
2013-01-11 07:12:00,53.0,-99.9,-100.00,NE,45,3.0,-999.0,-999,-99.99,,,0.00,,2013-01-11 14:12:00,
2013-01-11 07:23:00,53.0,-99.9,-100.00,NE,45,3.0,-999.0,-999,-99.99,,,0.00,,2013-01-11 14:23:00,
2013-01-11 07:33:00,52.0,-99.9,-100.00,NE,45,11.0,-999.0,-999,-99.99,,,0.00,,2013-01-11 14:33:00,
2013-01-11 07:43:00,53.0,-99.9,-100.00,NE,45,13.0,-999.0,-999,-99.99,,,0.00,,2013-01-11 14:43:00,
2013-01-11 07:53:00,53.0,-99.9,-100.00,NE,45,13.0,-999.0,-999,-99.99,,,0.00,,2013-01-11 14:53:00,
2013-01-11 08:03:00,54.0,-99.9,-100.00,NE,45,12.0,-999.0,-999,-99.99,,,0.00,,2013-01-11 15:03:00,
2013-01-11 08:13:00,54.0,-99.9,-100.00,NE,45,9.0,-999.0,-999,-99.99,,,0.00,,2013-01-11 15:13:00,
2013-01-11 08:23:00,54.0,-99.9,-100.00,NE,45,9.0,-999.0,-999,-99.99,,,0.00,,2013-01-11 15:23:00,
2013-01-11 08:33:00,54.0,-99.9,-100.00,NE,45,8.0,-999.0,-999,-99.99,,,0.00,,2013-01-11 15:33:00,
2013-01-11 08:43:00,54.0,-99.9,-100.00,NE,45,8.0,-999.0,-999,-99.99,,,0.00,,2013-01-11 15:43:00,
2013-01-11 08:53:00,54.0,-99.9,-100.00,NE,45,13.0,-999.0,-999,-99.99,,,0.00,,2013-01-11 15:53:00,
2013-01-11 09:03:00,53.0,-99.9,-100.00,NE,45,0.0,-999.0,-999,-99.99,,,0.00,,2013-01-11 16:03:00,
2013-01-11 09:13:00,51.0,-99.9,-100.00,NE,45,0.0,-999.0,-999,-99.99,,,0.00,,2013-01-11 16:13:00,
2013-01-11 09:23:00,51.0,-99.9,-100.00,NE,45,0.0,-999.0,-999,-99.99,,,0.00,,2013-01-11 16:23:00,
2013-01-11 09:33:00,50.0,-99.9,-100.00,NE,45,0.0,-999.0,-999,-99.99,,,0.00,,2013-01-11 16:33:00,
2013-01-11 09:43:00,49.0,-99.9,-100.00,NE,45,0.0,-999.0,-999,-99.99,,,0.00,,2013-01-11 16:43:00,
2013-01-11 09:53:00,49.0,-99.9,-100.00,NE,45,0.0,-999.0,-999,-99.99,,,0.00,,2013-01-11 16:53:00,
2013-01-11 10:03:00,49.0,-99.9,-100.00,NE,45,0.0,-999.0,-999,-99.99,,,0.00,,2013-01-11 17:03:00,
2013-01-11 10:12:00,48.0,-99.9,-100.00,NE,45,7.0,-999.0,-999,-99.99,,,0.00,,2013-01-11 17:12:00,
2013-01-11 10:23:00,48.0,-99.9,-100.00,NE,45,7.0,-999.0,-999,-99.99,,,0.00,,2013-01-11 17:23:00,
2013-01-11 10:33:00,47.0,-99.9,-100.00,NE,45,5.0,-999.0,-999,-99.99,,,0.00,,2013-01-11 17:33:00,
2013-01-11 10:43:00,47.0,-99.9,-100.00,NE,45,5.0,-999.0,-999,-99.99,,,0.00,,2013-01-11 17:43:00,
2013-01-11 10:53:00,48.0,-99.9,-100.00,NE,45,3.0,-999.0,-999,-99.99,,,0.00,,2013-01-11 17:53:00,
2013-01-11 11:04:00,48.0,-99.9,-100.00,NE,45,8.0,-999.0,-999,-99.99,,,0.00,,2013-01-11 18:04:00,
2013-01-11 11:13:00,48.0,-99.9,-100.00,NE,45,8.0,-999.0,-999,-99.99,,,0.00,,2013-01-11 18:13:00,
2013-01-11 11:24:00,48.0,-99.9,-100.00,NE,45,8.0,-999.0,-999,-99.99,,,0.00,,2013-01-11 18:24:00,
2013-01-11 11:33:00,48.0,-99.9,-100.00,NE,45,12.0,-999.0,-999,-99.99,,,0.00,,2013-01-11 18:33:00,
2013-01-11 11:43:00,48.0,-99.9,-100.00,NE,45,12.0,-999.0,-999,-99.99,,,0.00,,2013-01-11 18:43:00,
2013-01-11 11:53:00,49.0,-99.9,-100.00,NE,45,10.0,-999.0,-999,-99.99,,,0.00,,2013-01-11 18:53:00,
2013-01-11 12:03:00,51.0,-99.9,-100.00,NE,45,7.0,-999.0,-999,-99.99,,,0.00,,2013-01-11 19:03:00,
2013-01-11 12:13:00,51.0,-99.9,-100.00,NE,45,7.0,-999.0,-999,-99.99,,,0.00,,2013-01-11 19:13:00,
2013-01-11 12:23:00,51.0,-99.9,-100.00,NE,45,8.0,-999.0,-999,-99.99,,,0.00,,2013-01-11 19:23:00,
2013-01-11 12:33:00,52.0,-99.9,-100.00,NE,45,15.0,-999.0,-999,-99.99,,,0.00,,2013-01-11 19:33:00,
2013-01-11 12:43:00,52.0,-99.9,-100.00,NE,45,15.0,-999.0,-999,-99.99,,,0.00,,2013-01-11 19:43:00,
2013-01-11 12:54:00,51.0,-99.9,-100.00,NE,45,4.0,-999.0,-999,-99.99,,,0.00,,2013-01-11 19:54:00,
2013-01-11 13:03:00,52.0,-99.9,-100.00,NE,45,11.0,-999.0,-999,-99.99,,,0.00,,2013-01-11 20:03:00,
2013-01-11 13:13:00,52.0,-99.9,-100.00,NE,45,9.0,-999.0,-999,-99.99,,,0.00,,2013-01-11 20:13:00,
2013-01-11 13:23:00,52.0,-99.9,-100.00,NE,45,9.0,-999.0,-999,-99.99,,,0.00,,2013-01-11 20:23:00,
2013-01-11 13:33:00,53.0,-99.9,-100.00,NE,45,13.0,-999.0,-999,-99.99,,,0.00,,2013-01-11 20:33:00,
2013-01-11 13:43:00,53.0,-99.9,-100.00,NE,45,13.0,-999.0,-999,-99.99,,,0.00,,2013-01-11 20:43:00,
2013-01-11 13:53:00,53.0,-99.9,-100.00,NE,45,9.0,-999.0,-999,-99.99,,,0.00,,2013-01-11 20:53:00,
2013-01-11 14:03:00,53.0,-99.9,-100.00,NE,45,0.0,-999.0,-999,-99.99,,,0.00,,2013-01-11 21:03:00,
2013-01-11 14:13:00,53.0,-99.9,-100.00,NE,45,3.0,-999.0,-999,-99.99,,,0.00,,2013-01-11 21:13:00,
2013-01-11 14:23:00,53.0,-99.9,-100.00,NE,45,3.0,-999.0,-999,-99.99,,,0.00,,2013-01-11 21:23:00,
2013-01-11 14:33:00,54.0,-99.9,-100.00,NE,45,6.0,-999.0,-999,-99.99,,,0.00,,2013-01-11 21:33:00,
2013-01-11 14:43:00,54.0,-99.9,-100.00,NE,45,6.0,-999.0,-999,-99.99,,,0.00,,2013-01-11 21:43:00,
2013-01-11 14:53:00,53.0,-99.9,-100.00,NE,45,9.0,-999.0,-999,-99.99,,,0.00,,2013-01-11 21:53:00,
2013-01-11 15:03:00,53.0,-99.9,-100.00,NE,45,8.0,-999.0,-999,-99.99,,,0.00,,2013-01-11 22:03:00,
2013-01-11 15:13:00,52.0,-99.9,-100.00,NE,45,7.0,-999.0,-999,-99.99,,,0.00,,2013-01-11 22:13:00,
2013-01-11 15:23:00,52.0,-99.9,-100.00,NE,45,7.0,-999.0,-999,-99.99,,,0.00,,2013-01-11 22:23:00,
2013-01-11 15:33:00,53.0,-99.9,-100.00,NE,45,16.0,-999.0,-999,-99.99,,,0.00,,2013-01-11 22:33:00,
2013-01-11 15:43:00,53.0,-99.9,-100.00,NE,45,16.0,-999.0,-999,-99.99,,,0.00,,2013-01-11 22:43:00,
2013-01-11 15:53:00,52.0,-99.9,-100.00,NE,45,5.0,-999.0,-999,-99.99,,,0.00,,2013-01-11 22:53:00,
2013-01-11 16:03:00,51.0,-99.9,-100.00,NE,45,0.0,-999.0,-999,-99.99,,,0.00,,2013-01-11 23:03:00,
2013-01-11 16:13:00,51.0,-99.9,-100.00,NE,45,6.0,-999.0,-999,-99.99,,,0.00,,2013-01-11 23:13:00,
2013-01-11 16:23:00,51.0,-99.9,-100.00,NE,45,6.0,-999.0,-999,-99.99,,,0.00,,2013-01-11 23:23:00,
2013-01-11 16:33:00,51.0,-99.9,-100.00,NE,45,10.0,-999.0,-999,-99.99,,,0.00,,2013-01-11 23:33:00,
2013-01-11 16:43:00,51.0,-99.9,-100.00,NE,45,10.0,-999.0,-999,-99.99,,,0.00,,2013-01-11 23:43:00,
2013-01-11 16:54:00,50.0,-99.9,-100.00,NE,45,0.0,-999.0,-999,-99.99,,,0.00,,2013-01-11 23:54:00,
2013-01-11 17:03:00,50.0,-99.9,-100.00,NE,45,5.0,-999.0,-999,-99.99,,,0.00,,2013-01-12 00:03:00,
2013-01-11 17:13:00,49.0,-99.9,-100.00,NE,45,0.0,-999.0,-999,-99.99,,,0.00,,2013-01-12 00:13:00,
2013-01-11 17:23:00,49.0,-99.9,-100.00,NE,45,0.0,-999.0,-999,-99.99,,,0.00,,2013-01-12 00:23:00,
2013-01-11 17:33:00,48.0,-99.9,-100.00,NE,45,0.0,-999.0,-999,-99.99,,,0.00,,2013-01-12 00:33:00,
2013-01-11 17:43:00,48.0,-99.9,-100.00,NE,45,0.0,-999.0,-999,-99.99,,,0.00,,2013-01-12 00:43:00,
2013-01-11 17:53:00,48.0,-99.9,-100.00,NE,45,6.0,-999.0,-999,-99.99,,,0.00,,2013-01-12 00:53:00,
2013-01-11 18:03:00,48.0,-99.9,-100.00,NE,45,0.0,-999.0,-999,-99.99,,,0.00,,2013-01-12 01:03:00,
2013-01-11 18:13:00,47.0,-99.9,-100.00,NE,45,0.0,-999.0,-999,-99.99,,,0.00,,2013-01-12 01:13:00,
2013-01-11 18:23:00,47.0,-99.9,-100.00,NE,45,0.0,-999.0,-999,-99.99,,,0.00,,2013-01-12 01:23:00,
2013-01-11 18:33:00,47.0,-99.9,-100.00,NE,45,0.0,-999.0,-999,-99.99,,,0.00,,2013-01-12 01:33:00,
2013-01-11 18:43:00,47.0,-99.9,-100.00,NE,45,0.0,-999.0,-999,-99.99,,,0.00,,2013-01-12 01:43:00,
2013-01-11 18:53:00,45.0,-99.9,-100.00,NE,45,4.0,-999.0,-999,-99.99,,,0.00,,2013-01-12 01:53:00,
2013-01-11 19:03:00,45.0,-99.9,-100.00,NE,45,0.0,-999.0,-999,-99.99,,,0.00,,2013-01-12 02:03:00,
2013-01-11 19:12:00,45.0,-99.9,-100.00,NE,45,0.0,-999.0,-999,-99.99,,,0.00,,2013-01-12 02:12:00,
2013-01-11 19:22:00,44.0,-99.9,-100.00,NE,45,4.0,-999.0,-999,-99.99,,,0.00,,2013-01-12 02:22:00,
2013-01-11 19:33:00,44.0,-99.9,-100.00,NE,45,3.0,-999.0,-999,-99.99,,,0.00,,2013-01-12 02:33:00,
2013-01-11 19:43:00,44.0,-99.9,-100.00,NE,45,3.0,-999.0,-999,-99.99,,,0.00,,2013-01-12 02:43:00,
2013-01-11 19:53:00,44.0,-99.9,-100.00,NE,45,2.0,-999.0,-999,-99.99,,,0.00,,2013-01-12 02:53:00,
2013-01-11 20:03:00,43.0,-99.9,-100.00,NE,45,0.0,-999.0,-999,-99.99,,,0.00,,2013-01-12 03:03:00,
2013-01-11 20:12:00,43.0,-99.9,-100.00,NE,45,0.0,-999.0,-999,-99.99,,,0.00,,2013-01-12 03:12:00,
2013-01-11 20:23:00,43.0,-99.9,-100.00,NE,45,0.0,-999.0,-999,-99.99,,,0.00,,2013-01-12 03:23:00,
2013-01-11 20:33:00,42.0,-99.9,-100.00,NE,45,0.0,-999.0,-999,-99.99,,,0.00,,2013-01-12 03:33:00,
2013-01-11 20:43:00,42.0,-99.9,-100.00,NE,45,0.0,-999.0,-999,-99.99,,,0.00,,2013-01-12 03:43:00,
2013-01-11 20:53:00,42.0,-99.9,-100.00,NE,45,0.0,-999.0,-999,-99.99,,,0.00,,2013-01-12 03:53:00,
2013-01-11 21:03:00,41.0,-99.9,-100.00,NE,45,0.0,-999.0,-999,-99.99,,,0.00,,2013-01-12 04:03:00,
2013-01-11 21:12:00,41.0,-99.9,-100.00,NE,45,0.0,-999.0,-999,-99.99,,,0.00,,2013-01-12 04:12:00,
2013-01-11 21:22:00,41.0,-99.9,-100.00,NE,45,0.0,-999.0,-999,-99.99,,,0.00,,2013-01-12 04:22:00,
2013-01-11 21:33:00,41.0,-99.9,-100.00,NE,45,0.0,-999.0,-999,-99.99,,,0.00,,2013-01-12 04:33:00,
2013-01-11 21:43:00,41.0,-99.9,-100.00,NE,45,0.0,-999.0,-999,-99.99,,,0.00,,2013-01-12 04:43:00,
2013-01-11 21:53:00,41.0,-99.9,-100.00,NE,45,0.0,-999.0,-999,-99.99,,,0.00,,2013-01-12 04:53:00,
2013-01-11 22:04:00,38.0,-99.9,-100.00,NE,45,0.0,-999.0,-999,-99.99,,,0.00,,2013-01-12 05:04:00,
2013-01-11 22:12:00,38.0,-99.9,-100.00,NE,45,0.0,-999.0,-999,-99.99,,,0.00,,2013-01-12 05:12:00,
2013-01-11 22:22:00,38.0,-99.9,-100.00,NE,45,0.0,-999.0,-999,-99.99,,,0.00,,2013-01-12 05:22:00,
2013-01-11 22:32:00,38.0,-99.9,-100.00,NE,45,0.0,-999.0,-999,-99.99,,,0.00,,2013-01-12 05:32:00,
2013-01-11 22:42:00,38.0,-99.9,-100.00,NE,45,0.0,-999.0,-999,-99.99,,,0.00,,2013-01-12 05:42:00,
2013-01-11 22:53:00,37.0,-99.9,-100.00,NE,45,0.0,-999.0,-999,-99.99,,,0.00,,2013-01-12 05:53:00,
2013-01-11 23:03:00,36.0,-99.9,-100.00,NE,45,0.0,-999.0,-999,-99.99,,,0.00,,2013-01-12 06:03:00,
2013-01-11 23:12:00,36.0,-99.9,-100.00,NE,45,0.0,-999.0,-999,-99.99,,,0.00,,2013-01-12 06:12:00,
2013-01-11 23:23:00,36.0,-99.9,-100.00,NE,45,0.0,-999.0,-999,-99.99,,,0.00,,2013-01-12 06:23:00,
2013-01-11 23:33:00,36.0,-99.9,-100.00,NE,45,0.0,-999.0,-999,-99.99,,,0.00,,2013-01-12 06:33:00,
2013-01-11 23:43:00,36.0,-99.9,-100.00,NE,45,0.0,-999.0,-999,-99.99,,,0.00,,2013-01-12 06:43:00,
2013-01-11 23:53:00,36.0,-99.9,-100.00,NE,45,0.0,-999.0,-999,-99.99,,,0.00,,2013-01-12 06:53:00,